Weather in Ullubiyaul

Russia / Republic of Dagestan     42°35′49″N   47°43′03″E
temp.,
°C
wind,
m/s
gust,
m/s
humid.,
%
clouds,
%
prec.,
mm/h
press.,
hPa
HPBL,
m
28 february, sun
sun2800:00+5wsw22740 0.0 101622
03:00+4w12700 0.0 101522
06:00+4wsw116645 0.0 101622
09:00+7e116128 0.0 1015167
12:00+8ne337422 0.0 1014552
15:00+5ne229360 0.1 1014206
18:00+4ene1197100 0.4 101699
21:00+4e1199100 2.1 101788
1 march, mon
mon100:00+4ne1199100 1.9 101879
03:00+3n2299100 3.9 1019126
06:00+2n3599100 3.2 1020269
09:00+2n3598100 5.6 1022290
12:00+2n4697100 0.9 1023338
15:00+2nw2491100 1.8 1024374
18:00+2n1189100 0.2 102695
21:00+2nnw0191100 0.2 102840
2 march, tue
tue200:000nnw019284 0.0 102929
03:000sw118672 0.0 102828
06:000sw127476 0.0 102929
09:00+3s117086 0.0 1029414
12:00+4ese226699 0.0 1027817
15:00+4ese337299 0.1 1026641
18:00+3se238464 0.0 102586
21:00+1sw128132 0.0 102529
3 march, wed
wed300:00+1wsw12720 0.0 102422
03:00+1w12630 0.0 102223
06:00+1w125834 0.0 102127
09:00+4e115568 0.0 1020296
12:00+5ne326281 0.0 1019723
15:00+5e216647 0.0 1018591
18:00+4ssw347510 0.0 102071
21:00+2n579143 0.0 1022325
4 march, thu
thu400:00+2wnw237897 0.0 102454
03:00+1nw228161 0.0 102575
06:000w12782 0.0 102646
09:00+2ne22771 0.0 1028423
12:00+3ene327767 0.0 1027488
15:00+2ese338283 0.1 1026424
18:00+2se358993 0.0 1027343
21:00+2sse459088 0.0 1028313